Location: Newark
(7.0858°N, 171.3717°E)
Time: 08:30:16
(UTC+00:00)

S-56A Canister/Altair - Pass Details

Date: 03 December 2020
Orbit: 633 x 2499 km, 38.9° (Epoch: 27 January)

Event Time Altitude Azimuth Distance (km) Brightness Sun altitude
Rises 02:56:17 0° 221° (SW) 5,799 12.8 42.7°
Reaches altitude 10° 02:59:54 10° 218° (SW) 4,941 12.7 42.0°
Maximum altitude 03:14:36 68° 137° (SE) 2,627 10.8 39.1°
Drops below altitude 10° 03:28:36 10° 57° (ENE) 4,749 11.2 36.2°
Sets 03:31:58 0° 55° (NE) 5,572 11.4 35.6°
